Location: Newark
(45.2678°N, 4.7433°E)
Time: 04:16:03
(UTC+00:00)

N. Korean satellite - Visible Passes

Search period start: 17 November 2019 00:00
Search period end: 27 November 2019 00:00
Orbit: 456 x 506 km, 97.2° (Epoch: 16 November)

Date Brightness Start Highest point End Pass type
(mag) Time Alt. Az. Time Alt. Az. Time Alt. Az.
17 Nov 7.3 05:26:27 10° NNE 05:30:08 59° E 05:33:46 10° S visible
17 Nov 9.6 17:37:55 10° SW 17:40:36 19° W 17:43:21 10° NW visible
18 Nov 8.8 05:01:23 10° NE 05:04:40 29° E 05:07:54 10° SSE visible
18 Nov 8.3 17:11:40 10° SSW 17:15:05 38° W 17:18:33 10° NNW visible
19 Nov 9.9 04:36:52 10° NE 04:39:06 15° E 04:41:18 10° SE visible
19 Nov 7.1 06:09:11 10° N 06:12:41 39° WNW 06:16:07 10° SW visible
19 Nov 6.8 16:46:00 10° S 16:49:38 81° WSW 16:53:22 10° NNW visible
20 Nov 6.5 05:43:38 10° N 05:47:22 83° WNW 05:51:01 10° SSW visible
20 Nov 10.1 17:56:19 10° WSW 17:57:59 13° W 17:59:39 10° WNW visible
21 Nov 7.8 05:18:21 10° NNE 05:21:57 46° E 05:25:28 10° S visible
21 Nov 9.2 17:29:21 10° SSW 17:32:22 24° W 17:35:27 10° NW visible
22 Nov 9.2 04:53:25 10° NE 04:56:26 23° E 04:59:25 10° SSE visible
22 Nov 7.8 17:03:19 10° S 17:06:52 48° W 17:10:29 10° NNW visible
23 Nov 10.1 04:29:17 10° ENE 04:30:49 12° E 04:32:22 10° ESE visible
23 Nov 6.8 06:00:56 10° N 06:04:31 49° WNW 06:08:02 10° SSW visible
23 Nov 6.6 16:37:47 10° SSE 16:41:27 80° ENE 16:45:11 10° N visible
24 Nov 6.7 05:35:28 10° NNE 05:39:10 79° ESE 05:42:46 10° S visible
24 Nov 9.9 17:47:24 10° SW 17:49:41 16° W 17:51:59 10° NW visible
25 Nov 8.2 05:10:15 10° NNE 05:13:42 37° E 05:17:04 10° SSE visible
25 Nov 8.8 17:20:51 10° SSW 17:24:06 30° W 17:27:25 10° NNW visible
26 Nov 9.5 04:45:28 10° NE 04:48:09 19° E 04:50:47 10° SE visible
26 Nov 7.4 06:18:20 10° N 06:21:36 30° WNW 06:24:48 10° SW visible
26 Nov 7.3 16:54:58 10° S 16:58:37 61° W 17:02:19 10° NNW visible
